[[{"header":{"parameterUnit":"m.s-1","parameterCategory":2,"la1":30.2991,"la2":30.254,"lo1":-89.0895,"lo2":-89.0444,"dy":0.0017,"dx":0.0017,"nx":28,"ny":28,"refTime":"2024-02-14T09:00:00:Z","depth":"0","parameterNumber":2,"parameterNumberName":"U-component_of_CURRENTS"},"data":[0,0,0,0,0,0,0,0,0,0,0,0,0,0,0,0,0,0,0,0,0,0,0,0,0,0,0,0,0,0,0,0,0,0,0,0,0,0,0,0,0,0,0,0,0,0,0,0,0,0,0,0,0,0,0,0,0,0,-0.2628,-0.2628,0,-0.2609,-0.2609,-0.2609,-0.2584,-0.2584,-0.2584,-0.2583,-0.254,-0.2539,-0.2539,0,0,0,0,0,0,0,0,0,0,0,0,0,-0.2749,-0.2747,-0.2628,-0.2628,-0.2628,-0.2609,-0.2609,-0.2609,-0.2585,-0.2584,-0.2583,-0.2583,-0.254,-0.254,-0.2539,0,0,0,0,0,0,0,0,0,0,0,0,0,-0.2711,-0.2746,-0.2628,-0.2613,-0.2611,-0.2609,-0.2609,-0.2609,-0.2585,-0.2584,-0.2583,-0.2583,-0.2541,-0.254,-0.2539,-0.2546,0,0,-0.2535,-0.2535,0,0,0,0,0,0,0,0,-0.2713,-0.2706,-0.2615,-0.2614,-0.2612,-0.2598,-0.2636,-0.2586,-0.2585,-0.2595,-0.2583,-0.2582,-0.2557,-0.2555,-0.2554,-0.2544,-0.2542,-0.2535,-0.2535,-0.2534,-0.2534,0,0,0,0,0,0,0,-0.2715,-0.2708,-0.2622,-0.2615,-0.2613,-0.2643,-0.2636,-0.2627,-0.2581,-0.2595,-0.2592,-0.2589,-0.2556,-0.2555,-0.2553,-0.2541,-0.2535,-0.2534,-0.2534,-0.2533,-0.2546,-0.2546,0,0,0,0,0,0,-0.2711,-0.2709,-0.2622,-0.2621,-0.2661,-0.2641,-0.2633,-0.2604,-0.2581,-0.2577,-0.259,-0.2588,-0.2557,-0.2554,-0.2551,-0.2561,-0.2534,-0.2533,-0.2532,-0.2545,-0.2546,-0.2547,0,0,0,0,0,0,-0.2713,-0.2702,-0.2623,-0.2666,-0.2658,-0.2639,-0.2607,-0.2604,-0.2597,-0.2578,-0.2573,-0.2586,-0.2557,-0.2553,-0.2544,-0.2559,-0.2533,-0.2532,-0.2543,-0.2545,-0.2546,-0.258,0,0,0,0,0,0,-0.2716,-0.2702,-0.268,-0.2665,-0.2655,-0.262,-0.2607,-0.2604,-0.2597,-0.2594,-0.2573,-0.2569,-0.2556,-0.2546,-0.2543,-0.2557,-0.2531,-0.2542,-0.2544,-0.2546,-0.2577,-0.2582,-0.2586,0,0,0,0,0,-0.272,-0.268,-0.2678,-0.2668,-0.2623,-0.262,-0.2619,-0.2605,-0.2597,-0.2596,-0.2584,-0.2569,-0.2556,-0.2545,-0.2542,-0.2556,-0.2541,-0.2544,-0.2546,-0.2575,-0.2581,-0.2586,0,0,0,0,0,0,-0.2715,-0.2674,-0.2671,-0.2619,-0.2624,-0.2616,-0.2604,-0.2606,-0.2597,-0.2589,-0.2575,-0.257,-0.2569,-0.256,-0.255,-0.2568,-0.2549,-0.2551,-0.2573,-0.2578,-0.2583,-0.2581,-0.253,0,0,0,0,0,-0.2706,-0.2663,-0.2655,-0.2616,-0.2616,-0.2616,-0.2611,-0.261,-0.2601,-0.2596,-0.2586,-0.2579,-0.2578,-0.2574,-0.2568,-0.2574,-0.2562,-0.2585,-0.2589,-0.2593,-0.2591,-0.2587,-0.2591,-0.2554,-0.2554,-0.2554,0,0,-0.2694,-0.2665,-0.2641,-0.2614,-0.2611,-0.2622,-0.261,-0.2603,-0.2619,-0.2593,-0.2599,-0.2588,-0.2582,-0.2589,-0.259,-0.2582,-0.2599,-0.2596,-0.2599,-0.2595,-0.259,-0.2593,-0.2596,-0.2555,-0.2555,-0.2555,0,0,-0.2663,-0.2625,-0.2596,-0.2606,-0.2604,-0.2611,-0.2613,-0.2614,-0.2618,-0.2628,-0.2617,-0.2616,-0.2612,-0.2615,-0.2616,-0.2642,-0.2619,-0.2644,-0.2666,-0.2663,-0.2665,-0.2667,-0.266,-0.2661,-0.2649,-0.2649,-0.2649,0,-0.2662,-0.2614,-0.2594,-0.2593,-0.2603,-0.2611,-0.2622,-0.2634,-0.2637,-0.2645,-0.2632,-0.2638,-0.2628,-0.2647,-0.2655,-0.2652,-0.2641,-0.2644,-0.2667,-0.2669,-0.2671,-0.2662,-0.2663,-0.2651,-0.2651,-0.2651,-0.2651,0,-0.2621,-0.2606,-0.2593,-0.2593,-0.2609,-0.2611,-0.2641,-0.2657,-0.2663,-0.2675,-0.2688,-0.2679,-0.268,-0.2686,-0.2675,-0.2692,-0.2678,-0.2669,-0.2651,-0.2676,-0.2666,-0.2666,-0.2654,-0.2653,-0.2653,-0.2652,0,0,-0.2557,-0.2567,-0.2563,-0.2581,-0.261,-0.2618,-0.2657,-0.2689,-0.2708,-0.2718,-0.2739,-0.2742,-0.2729,-0.273,-0.2722,-0.2723,-0.2726,-0.27,-0.2699,-0.2688,-0.2712,-0.2651,-0.2645,-0.2717,-0.2717,-0.2717,-0.2702,0,-0.2539,-0.2538,-0.2552,-0.258,-0.2589,-0.2634,-0.2669,-0.2705,-0.273,-0.2754,-0.276,-0.2768,-0.2751,-0.2746,-0.2747,-0.2734,-0.2727,-0.273,-0.2694,-0.2693,-0.2631,-0.2644,-0.2525,-0.2496,-0.2702,-0.2702,-0.2702,0,-0.2487,-0.2497,-0.2515,-0.2574,-0.2584,-0.2608,-0.2665,-0.2702,-0.2752,-0.2769,-0.2788,-0.2791,-0.2804,-0.2777,-0.2769,-0.2769,-0.2737,-0.2724,-0.2723,-0.2651,-0.2631,-0.2504,-0.2489,-0.2456,-0.2702,-0.2702,-0.2702,0,-0.2427,-0.247,-0.2482,-0.2502,-0.257,-0.2591,-0.2629,-0.2688,-0.2725,-0.2772,-0.2792,-0.2811,-0.2811,-0.2795,-0.2767,-0.2765,-0.2746,-0.2743,-0.2658,-0.2654,-0.2537,-0.2522,-0.2478,-0.2718,-0.2718,-0.2718,-0.2718,0,-0.2381,-0.239,-0.2452,-0.2456,-0.2487,-0.2548,-0.2584,-0.2633,-0.2698,-0.2726,-0.2781,-0.2798,-0.2811,-0.2807,-0.2778,-0.2718,-0.2753,-0.2658,-0.2644,-0.2546,-0.2533,-0.2486,-0.2504,-0.2718,-0.2718,-0.2718,-0.2718,0,-0.2299,-0.2338,-0.2361,-0.243,-0.2452,-0.247,-0.2557,-0.2574,-0.2654,-0.2695,-0.2708,-0.2785,-0.2782,-0.2788,-0.2762,-0.2718,-0.2622,-0.2638,-0.2522,-0.2494,-0.2382,-0.2406,-0.2348,-0.2284,-0.255,-0.2549,-0.2547,0,-0.2249,-0.2248,-0.2325,-0.2329,-0.2352,-0.2396,-0.2414,-0.2524,-0.2556,-0.2672,-0.2676,-0.272,-0.2721,-0.2692,-0.2626,-0.2569,-0.255,-0.2417,-0.2391,-0.2355,-0.2372,-0.2385,-0.2337,-0.2256,-0.2252,-0.2249,-0.2247,0,-0.2157,-0.2186,-0.2203,-0.2221,-0.2238,-0.2283,-0.2327,-0.2361,-0.2476,-0.2523,-0.2579,-0.2602,-0.26,-0.2503,-0.244,-0.2389,-0.2349,-0.2353,-0.2341,-0.2156,-0.2142,-0.2079,-0.2299,-0.222,-0.2223,-0.2225,-0.2226,-0.2227,-0.2073,-0.207,-0.2087,-0.2095,-0.2118,-0.2136,-0.2125,-0.2193,-0.2241,-0.2284,-0.2399,-0.2398,-0.2367,-0.2275,-0.223,-0.2097,-0.216,-0.2016,-0.2055,-0.2077,-0.1989,-0.215,-0.2042,-0.2044,-0.2045,-0.2046,-0.2047,0,-0.1961,-0.1963,-0.1953,-0.196,-0.1928,-0.1993,-0.2029,-0.1998,-0.1996,-0.208,-0.2111,-0.2114,-0.2017,-0.2013,-0.1901,-0.1812,-0.1774,-0.1771,-0.1759,-0.1728,-0.1874,-0.1833,-0.1643,-0.1643,-0.1643,-0.1643,-0.1643,-0.1643,-0.1897,-0.185,-0.1849,-0.1761,-0.1755,-0.1684,-0.1676,-0.1659,-0.1693,-0.1688,-0.1728,-0.1818,-0.1812,-0.1884,-0.1756,-0.1672,-0.1632,-0.1573,-0.1617,-0.1725,-0.1751,-0.1775,-0.1739,-0.1532,-0.1532,-0.1384,-0.1383,-0.1382]},{"header":{"parameterUnit":"m.s-1","parameterCategory":2,"la1":30.2991,"la2":30.254,"lo1":-89.0895,"lo2":-89.0444,"dy":0.0017,"dx":0.0017,"nx":28,"ny":28,"refTime":"2024-02-14T09:00:00:Z","depth":"0","parameterNumber":3,"parameterNumberName":"V-component_of_CURRENTS"},"data":[0,0,0,0,0,0,0,0,0,0,0,0,0,0,0,0,0,0,0,0,0,0,0,0,0,0,0,0,0,0,0,0,0,0,0,0,0,0,0,0,0,0,0,0,0,0,0,0,0,0,0,0,0,0,0,0,0,0,-0.0151,-0.015,0,-0.0082,-0.0081,-0.008,-0.0039,-0.0039,-0.0039,-0.0038,0.0048,0.005,0.0052,0,0,0,0,0,0,0,0,0,0,0,0,0,-0.0263,-0.0261,-0.0151,-0.015,-0.0149,-0.0082,-0.0081,-0.008,-0.0039,-0.0039,-0.0038,-0.0038,0.0047,0.005,0.0052,0,0,0,0,0,0,0,0,0,0,0,0,0,-0.0206,-0.026,-0.0151,-0.012,-0.0117,-0.0082,-0.0081,-0.008,-0.0039,-0.0039,-0.0038,-0.0038,0.0046,0.005,0.0053,0.0066,0,0,0.0062,0.0064,0,0,0,0,0,0,0,0,-0.0209,-0.0202,-0.0126,-0.0122,-0.0118,-0.0068,-0.0089,-0.003,-0.0039,-0.0069,-0.0038,-0.0038,0.0011,0.0017,0.0029,0.007,0.0074,0.0063,0.0065,0.0066,0.0067,0,0,0,0,0,0,0,-0.0213,-0.0205,-0.0123,-0.0125,-0.012,-0.0116,-0.0107,-0.0078,-0.0031,-0.0066,-0.0063,-0.0055,0.0013,0.0025,0.0031,0.0075,0.0063,0.0065,0.0067,0.0069,0.0135,0.0135,0,0,0,0,0,0,-0.0221,-0.0208,-0.0126,-0.0121,-0.0164,-0.0114,-0.0104,-0.0085,-0.0032,-0.0024,-0.0055,-0.0053,0.002,0.0027,0.0034,0.0054,0.0066,0.0069,0.0071,0.0135,0.0135,0.0135,0,0,0,0,0,0,-0.0223,-0.0214,-0.0128,-0.0164,-0.0153,-0.0112,-0.0091,-0.0084,-0.0071,-0.0024,-0.0015,-0.005,0.002,0.003,0.0056,0.0057,0.007,0.0073,0.0136,0.0135,0.0135,0.0093,0,0,0,0,0,0,-0.0227,-0.0215,-0.0207,-0.0164,-0.0151,-0.0115,-0.0091,-0.0083,-0.0066,-0.0063,-0.0016,-0.0008,0.0021,0.0051,0.0059,0.0062,0.0076,0.0136,0.0135,0.0135,0.0094,0.0091,0.0088,0,0,0,0,0,-0.0231,-0.0224,-0.0207,-0.0198,-0.0141,-0.0115,-0.0108,-0.0079,-0.0066,-0.0065,-0.0033,-0.0009,0.0055,0.0053,0.0063,0.0067,0.0136,0.0135,0.0135,0.0095,0.0092,0.0088,0,0,0,0,0,0,-0.0271,-0.0218,-0.0199,-0.0176,-0.015,-0.0108,-0.0104,-0.0083,-0.0056,-0.0054,-0.001,0.0,0.0022,0.0049,0.0046,0.0085,0.0099,0.0101,0.0066,0.0063,0.006,0.0048,0.0078,0,0,0,0,0,-0.0276,-0.0255,-0.021,-0.0194,-0.0182,-0.0144,-0.0131,-0.0111,-0.008,-0.0068,-0.0035,-0.0001,0.0028,0.0048,0.0074,0.0098,0.013,0.0107,0.0104,0.0101,0.0097,0.0144,0.0145,0.0134,0.0134,0.0134,0,0,-0.0288,-0.0257,-0.0245,-0.0202,-0.0179,-0.0171,-0.0135,-0.0119,-0.0112,-0.0063,-0.0046,-0.0013,0.003,0.0053,0.0066,0.0078,0.0121,0.0101,0.0098,0.0096,0.0144,0.0145,0.0146,0.0134,0.0134,0.0134,0,0,-0.0312,-0.0273,-0.027,-0.0252,-0.0221,-0.0194,-0.0193,-0.0153,-0.0133,-0.0113,-0.0076,-0.0041,-0.0,0.0037,0.0059,0.0057,0.0099,0.0064,0.0047,0.0093,0.0094,0.0096,0.0138,0.0144,0.0068,0.0068,0.0068,0,-0.0332,-0.0315,-0.0268,-0.0268,-0.0261,-0.0209,-0.0217,-0.0188,-0.0146,-0.013,-0.0116,-0.0045,-0.0007,0.0034,0.0033,0.0052,0.008,0.0057,0.0089,0.0091,0.0093,0.0137,0.0144,0.0066,0.0066,0.0067,0.0067,0,-0.0354,-0.0348,-0.0348,-0.0325,-0.0311,-0.0309,-0.0266,-0.0251,-0.022,-0.0183,-0.0142,-0.0084,-0.004,-0.002,0.0007,0.0044,0.006,0.0074,0.0097,0.0092,0.0138,0.0146,0.0063,0.0064,0.0065,0.0065,0,0,-0.0377,-0.0367,-0.0367,-0.0379,-0.0343,-0.0338,-0.0324,-0.0292,-0.0281,-0.0226,-0.0203,-0.0137,-0.0095,-0.0067,-0.0018,0.0028,0.0074,0.0054,0.0057,0.0094,0.0172,0.0221,0.0235,0.0093,0.0094,0.0095,0.0198,0,-0.0412,-0.0441,-0.0413,-0.044,-0.0455,-0.0411,-0.0405,-0.0368,-0.0321,-0.0284,-0.0203,-0.0163,-0.0114,-0.0092,-0.0036,0.0045,0.0092,0.0045,0.0173,0.0177,0.022,0.0245,0.028,0.0377,0.0206,0.0207,0.0208,0,-0.0437,-0.0458,-0.0497,-0.0513,-0.0512,-0.0513,-0.0494,-0.0476,-0.0403,-0.0369,-0.0299,-0.0232,-0.0147,-0.0113,0.0034,-0.0001,0.0077,0.0143,0.0149,0.0214,0.0241,0.0355,0.0399,0.0531,0.0221,0.022,0.0219,0,-0.0487,-0.0512,-0.0551,-0.0556,-0.056,-0.0566,-0.0555,-0.0501,-0.049,-0.0411,-0.0389,-0.0276,-0.0222,-0.0105,0.0046,0.0035,0.0207,0.0211,0.0329,0.0334,0.0399,0.0408,0.0585,0.0304,0.0304,0.0304,0.0303,0,-0.0531,-0.0561,-0.0582,-0.0605,-0.0653,-0.0621,-0.0639,-0.0611,-0.0562,-0.0545,-0.0431,-0.0391,-0.022,-0.0093,0.0035,0.0221,0.0205,0.0335,0.0369,0.0386,0.0391,0.0538,0.0589,0.0308,0.0307,0.0306,0.0305,0,-0.0577,-0.0587,-0.0645,-0.0671,-0.0679,-0.0711,-0.0711,-0.0719,-0.0658,-0.063,-0.0609,-0.0473,-0.0299,-0.0108,0.0092,0.0207,0.0472,0.0439,0.045,0.0483,0.0705,0.0751,0.0958,0.1048,0.0582,0.0584,0.0585,0,-0.0602,-0.0637,-0.0703,-0.0744,-0.0757,-0.0792,-0.0816,-0.0779,-0.0777,-0.0677,-0.067,-0.0497,-0.0362,-0.0032,0.0213,0.0471,0.0569,0.0628,0.0616,0.0738,0.0814,0.0842,0.0904,0.0687,0.0689,0.0691,0.0693,0,-0.0658,-0.0683,-0.0735,-0.0823,-0.0868,-0.0921,-0.0939,-0.0957,-0.0897,-0.0847,-0.0748,-0.0624,-0.0279,0.0042,0.0386,0.053,0.0741,0.0674,0.0805,0.0921,0.096,0.1055,0.0593,0.0709,0.0708,0.0707,0.0706,0.0705,-0.0696,-0.0756,-0.0824,-0.0905,-0.0966,-0.103,-0.1063,-0.1063,-0.1051,-0.095,-0.0815,-0.0586,-0.0102,0.04,0.0575,0.0942,0.0899,0.1027,0.1076,0.1095,0.1182,0.0757,0.0905,0.0905,0.0904,0.0904,0.0904,0,-0.0743,-0.081,-0.0895,-0.0995,-0.1073,-0.1081,-0.1132,-0.1136,-0.1117,-0.0968,-0.0822,-0.0281,0.019,0.0627,0.1163,0.1336,0.1372,0.1411,0.1461,0.1507,0.1143,0.1147,0.1349,0.1349,0.1349,0.1349,0.1349,0.1349,-0.0771,-0.0865,-0.0916,-0.1059,-0.1123,-0.12,-0.1228,-0.1208,-0.111,-0.0844,-0.0542,-0.028,0.0364,0.123,0.1695,0.1716,0.1863,0.1836,0.1925,0.1665,0.1632,0.1601,0.1619,0.1917,0.1918,0.2277,0.228,0.2283]}],[{"header":{"parameterUnit":"m.s-1","parameterCategory":2,"la1":30.2991,"la2":30.254,"lo1":-89.0895,"lo2":-89.0444,"dy":0.0017,"dx":0.0017,"nx":28,"ny":28,"refTime":"2024-02-14T09:00:00:Z","depth":"2","parameterNumber":2,"parameterNumberName":"U-component_of_CURRENTS"},"data":[0,0,0,0,0,0,0,0,0,0,0,0,0,0,0,0,0,0,0,0,0,0,0,0,0,0,0,0,0,0,0,0,0,0,0,0,0,0,0,0,0,0,0,0,0,0,0,0,0,0,0,0,0,0,0,0,0,0,-0.2244,-0.2244,0,-0.2257,-0.2257,-0.2257,-0.2247,-0.2247,-0.2247,-0.2247,-0.2222,-0.2222,-0.2221,0,0,0,0,0,0,0,0,0,0,0,0,0,-0.2266,-0.2265,-0.2244,-0.2244,-0.2245,-0.2257,-0.2257,-0.2257,-0.2247,-0.2247,-0.2247,-0.2246,-0.2222,-0.2222,-0.2221,0,0,0,0,0,0,0,0,0,0,0,0,0,-0.2264,-0.2265,-0.2244,-0.2243,-0.2243,-0.2257,-0.2257,-0.2257,-0.2248,-0.2247,-0.2247,-0.2246,-0.2222,-0.2222,-0.2221,-0.2226,0,0,-0.222,-0.2219,0,0,0,0,0,0,0,0,-0.2264,-0.2263,-0.2242,-0.2243,-0.2243,-0.2251,-0.2256,-0.2245,-0.2248,-0.2244,-0.2247,-0.2246,-0.223,-0.2229,-0.223,-0.2225,-0.2224,-0.222,-0.2219,-0.2219,-0.2219,0,0,0,0,0,0,0,-0.2264,-0.2263,-0.2248,-0.2243,-0.2243,-0.226,-0.2259,-0.2254,-0.2237,-0.2244,-0.2244,-0.2248,-0.2229,-0.2231,-0.223,-0.2224,-0.222,-0.2219,-0.2219,-0.2218,-0.2241,-0.2242,0,0,0,0,0,0,-0.2263,-0.2262,-0.2247,-0.2248,-0.2254,-0.226,-0.2258,-0.2248,-0.2238,-0.2237,-0.2248,-0.2248,-0.2232,-0.223,-0.2229,-0.2248,-0.2219,-0.2218,-0.2218,-0.224,-0.2241,-0.2242,0,0,0,0,0,0,-0.2263,-0.2261,-0.2247,-0.2258,-0.2257,-0.226,-0.2248,-0.2248,-0.2251,-0.2242,-0.224,-0.2251,-0.2232,-0.223,-0.2229,-0.2246,-0.2218,-0.2218,-0.2239,-0.224,-0.2242,-0.2278,0,0,0,0,0,0,-0.2263,-0.226,-0.2249,-0.2257,-0.2257,-0.2258,-0.2249,-0.2249,-0.2255,-0.2254,-0.2244,-0.2241,-0.2231,-0.223,-0.2229,-0.2245,-0.2217,-0.2238,-0.224,-0.2241,-0.2275,-0.228,-0.2284,0,0,0,0,0,-0.2264,-0.2249,-0.2248,-0.2247,-0.2242,-0.2258,-0.226,-0.2259,-0.2255,-0.2259,-0.2254,-0.2241,-0.2241,-0.223,-0.2228,-0.2245,-0.2237,-0.2239,-0.2241,-0.2273,-0.2279,-0.2284,0,0,0,0,0,0,-0.2241,-0.2247,-0.2246,-0.223,-0.2246,-0.2257,-0.2256,-0.2263,-0.2262,-0.2258,-0.2248,-0.2245,-0.2253,-0.2245,-0.2234,-0.2258,-0.2239,-0.2241,-0.2264,-0.227,-0.2274,-0.2271,-0.2217,0,0,0,0,0,-0.2234,-0.2228,-0.2243,-0.2229,-0.2237,-0.2249,-0.2254,-0.2261,-0.2265,-0.2264,-0.226,-0.2258,-0.2261,-0.2261,-0.2259,-0.2269,-0.2257,-0.2281,-0.2286,-0.229,-0.2287,-0.2286,-0.229,-0.2249,-0.2249,-0.2249,0,0,-0.2218,-0.2224,-0.2216,-0.2226,-0.2234,-0.2254,-0.225,-0.2262,-0.2281,-0.2261,-0.2275,-0.2269,-0.2267,-0.2279,-0.2283,-0.2274,-0.2296,-0.2292,-0.2295,-0.2291,-0.2289,-0.2292,-0.2296,-0.2251,-0.225,-0.225,0,0,-0.2203,-0.2193,-0.2194,-0.2214,-0.2237,-0.2252,-0.2258,-0.2277,-0.2286,-0.2302,-0.2295,-0.23,-0.2303,-0.2308,-0.231,-0.2339,-0.2318,-0.2342,-0.2364,-0.2363,-0.2366,-0.2368,-0.2359,-0.2361,-0.2347,-0.2347,-0.2347,0,-0.2188,-0.2188,-0.2198,-0.2218,-0.2235,-0.2254,-0.2273,-0.2291,-0.2308,-0.2318,-0.231,-0.2324,-0.2319,-0.2341,-0.2351,-0.2349,-0.2339,-0.2342,-0.2368,-0.237,-0.2372,-0.2362,-0.2363,-0.2349,-0.2349,-0.2348,-0.2348,0,-0.2184,-0.2192,-0.2196,-0.2229,-0.2251,-0.2267,-0.2303,-0.2323,-0.2335,-0.235,-0.237,-0.2367,-0.2373,-0.2381,-0.2372,-0.2392,-0.2378,-0.2371,-0.2352,-0.2378,-0.2366,-0.2367,-0.2352,-0.2351,-0.235,-0.235,0,0,-0.2131,-0.2184,-0.2186,-0.2208,-0.2259,-0.2275,-0.2318,-0.2356,-0.2378,-0.2395,-0.2419,-0.2429,-0.2422,-0.2424,-0.2421,-0.2423,-0.2428,-0.2403,-0.2402,-0.2389,-0.2419,-0.2357,-0.2352,-0.2424,-0.2424,-0.2424,-0.2406,0,-0.2127,-0.2161,-0.2196,-0.2233,-0.2252,-0.2299,-0.2335,-0.2374,-0.2403,-0.2431,-0.2443,-0.2456,-0.2443,-0.2443,-0.2446,-0.2437,-0.2431,-0.2433,-0.2399,-0.2398,-0.2336,-0.2351,-0.216,-0.2123,-0.2406,-0.2406,-0.2406,0,-0.2108,-0.2138,-0.2171,-0.2235,-0.2249,-0.2276,-0.2335,-0.2375,-0.2429,-0.245,-0.2474,-0.2481,-0.2498,-0.2475,-0.247,-0.2472,-0.2443,-0.243,-0.2429,-0.2357,-0.2337,-0.2142,-0.2113,-0.2406,-0.2406,-0.2406,-0.2406,0,-0.2052,-0.2118,-0.2141,-0.2163,-0.2239,-0.2262,-0.2303,-0.2366,-0.2404,-0.2457,-0.2481,-0.2504,-0.251,-0.2495,-0.2471,-0.247,-0.2454,-0.2451,-0.2366,-0.2362,-0.2184,-0.2163,-0.2429,-0.2429,-0.2429,-0.2429,-0.2429,0,-0.2021,-0.2038,-0.2113,-0.2122,-0.2159,-0.2224,-0.2265,-0.2315,-0.2385,-0.2416,-0.2474,-0.2493,-0.2513,-0.251,-0.2482,-0.2424,-0.246,-0.2366,-0.2352,-0.2192,-0.2173,-0.2406,-0.2404,-0.2428,-0.2428,-0.2428,-0.2429,0,-0.1943,-0.1993,-0.2025,-0.2102,-0.2128,-0.2149,-0.2241,-0.2264,-0.2346,-0.2391,-0.2407,-0.2486,-0.2483,-0.249,-0.2467,-0.2425,-0.2385,-0.2347,-0.2157,-0.2121,-0.2291,-0.2292,-0.2261,-0.2259,-0.2257,-0.2255,-0.2254,0,-0.1901,-0.1906,-0.1991,-0.2003,-0.2032,-0.2083,-0.2108,-0.2218,-0.2252,-0.237,-0.2375,-0.2421,-0.2412,-0.2384,-0.2321,-0.2261,-0.2324,-0.205,-0.2015,-0.2284,-0.2274,-0.2277,-0.228,-0.1794,-0.1789,-0.1785,-0.1781,0,-0.1814,-0.1845,-0.1869,-0.1904,-0.1931,-0.1978,-0.2029,-0.2062,-0.2177,-0.2221,-0.2271,-0.2284,-0.2277,-0.2139,-0.2079,-0.2019,-0.2052,-0.1965,-0.2282,-0.1875,-0.1844,-0.1835,-0.1852,-0.1744,-0.1748,-0.1751,-0.1753,-0.1754,-0.1733,-0.1733,-0.1764,-0.1786,-0.1821,-0.1842,-0.1833,-0.1899,-0.194,-0.1971,-0.2079,-0.2032,-0.2031,-0.1849,-0.1763,-0.1697,-0.1837,-0.174,-0.1752,-0.1768,-0.1726,-0.1695,-0.1559,-0.1561,-0.1564,-0.1565,-0.1567,0,-0.1625,-0.1634,-0.1641,-0.1663,-0.1646,-0.1714,-0.1748,-0.1714,-0.1701,-0.1746,-0.1758,-0.1598,-0.1508,-0.152,-0.1359,-0.1337,-0.1321,-0.128,-0.1246,-0.1283,-0.1315,-0.1251,-0.0957,-0.0955,-0.0954,-0.0952,0,0,-0.1562,-0.1527,-0.1535,-0.1476,-0.1487,-0.1428,-0.1418,-0.1389,-0.1391,-0.1332,-0.1302,-0.1408,-0.1457,-0.12,-0.1144,-0.1021,-0.1141,-0.0972,-0.1457,-0.1451,-0.1481,-0.1571,-0.1512,0,0,0,0,0]},{"header":{"parameterUnit":"m.s-1","parameterCategory":2,"la1":30.2991,"la2":30.254,"lo1":-89.0895,"lo2":-89.0444,"dy":0.0017,"dx":0.0017,"nx":28,"ny":28,"refTime":"2024-02-14T09:00:00:Z","depth":"2","parameterNumber":3,"parameterNumberName":"V-component_of_CURRENTS"},"data":[0,0,0,0,0,0,0,0,0,0,0,0,0,0,0,0,0,0,0,0,0,0,0,0,0,0,0,0,0,0,0,0,0,0,0,0,0,0,0,0,0,0,0,0,0,0,0,0,0,0,0,0,0,0,0,0,0,0,-0.0158,-0.0157,0,-0.0094,-0.0094,-0.0093,-0.0055,-0.0055,-0.0055,-0.0055,0.0026,0.0027,0.0029,0,0,0,0,0,0,0,0,0,0,0,0,0,-0.0248,-0.0247,-0.0158,-0.0157,-0.0156,-0.0094,-0.0094,-0.0093,-0.0055,-0.0055,-0.0055,-0.0055,0.0025,0.0027,0.003,0,0,0,0,0,0,0,0,0,0,0,0,0,-0.02,-0.0247,-0.0158,-0.013,-0.0127,-0.0095,-0.0094,-0.0092,-0.0055,-0.0055,-0.0055,-0.0055,0.0024,0.0027,0.003,0.0043,0,0,0.0039,0.004,0,0,0,0,0,0,0,0,-0.0202,-0.0196,-0.0135,-0.0132,-0.0128,-0.0082,-0.0096,-0.0046,-0.0055,-0.0083,-0.0055,-0.0054,-0.0009,-0.0003,0.0008,0.0047,0.005,0.0039,0.0041,0.0042,0.0043,0,0,0,0,0,0,0,-0.0206,-0.0199,-0.0133,-0.0134,-0.013,-0.0121,-0.0114,-0.0087,-0.0048,-0.008,-0.0077,-0.007,-0.0007,0.0005,0.001,0.0051,0.0039,0.0042,0.0044,0.0045,0.0104,0.0104,0,0,0,0,0,0,-0.0213,-0.0202,-0.0135,-0.0131,-0.0165,-0.012,-0.0112,-0.0097,-0.0048,-0.0041,-0.007,-0.0069,-0.0001,0.0006,0.0013,0.0029,0.0042,0.0045,0.0047,0.0104,0.0104,0.0104,0,0,0,0,0,0,-0.0215,-0.0208,-0.0137,-0.0165,-0.0156,-0.0119,-0.0103,-0.0096,-0.0084,-0.0041,-0.0033,-0.0065,-0.0,0.0009,0.0033,0.0032,0.0046,0.0049,0.0105,0.0104,0.0104,0.0062,0,0,0,0,0,0,-0.0218,-0.0209,-0.0204,-0.0166,-0.0154,-0.0124,-0.0103,-0.0095,-0.008,-0.0077,-0.0034,-0.0026,0.0001,0.0028,0.0035,0.0036,0.0051,0.0105,0.0104,0.0104,0.0063,0.006,0.0057,0,0,0,0,0,-0.0222,-0.0218,-0.0204,-0.0196,-0.0148,-0.0125,-0.0119,-0.0091,-0.008,-0.0079,-0.005,-0.0027,0.0031,0.003,0.0039,0.0041,0.0105,0.0105,0.0104,0.0065,0.0061,0.0057,0,0,0,0,0,0,-0.0257,-0.0213,-0.0197,-0.018,-0.0157,-0.0118,-0.0114,-0.0095,-0.0071,-0.0068,-0.0028,-0.0019,-0.0,0.0026,0.0023,0.0056,0.0071,0.0073,0.0038,0.0035,0.0032,0.0021,0.0054,0,0,0,0,0,-0.0263,-0.0247,-0.0208,-0.0196,-0.0185,-0.015,-0.0138,-0.012,-0.0092,-0.0081,-0.0051,-0.002,0.0005,0.0023,0.0047,0.0068,0.0098,0.0075,0.0071,0.0069,0.0066,0.0109,0.011,0.0102,0.0102,0.0102,0,0,-0.0273,-0.0247,-0.0238,-0.0203,-0.0181,-0.0176,-0.0142,-0.0127,-0.0122,-0.0076,-0.0062,-0.0032,0.0006,0.0026,0.0038,0.0049,0.0087,0.0068,0.0065,0.0064,0.0109,0.011,0.011,0.0102,0.0102,0.0102,0,0,-0.0294,-0.0263,-0.0261,-0.0246,-0.0218,-0.0196,-0.0194,-0.0158,-0.0141,-0.0123,-0.009,-0.006,-0.0023,0.0009,0.0029,0.0024,0.0064,0.003,0.0013,0.0055,0.0056,0.0058,0.0097,0.0102,0.0034,0.0034,0.0034,0,-0.031,-0.03,-0.026,-0.0261,-0.0256,-0.0209,-0.0218,-0.0192,-0.0154,-0.014,-0.0127,-0.0064,-0.0031,0.0003,0.0001,0.0018,0.0045,0.0024,0.0051,0.0053,0.0055,0.0095,0.0101,0.0032,0.0032,0.0032,0.0033,0,-0.0331,-0.0329,-0.0329,-0.0312,-0.0302,-0.0301,-0.0264,-0.025,-0.0223,-0.0191,-0.0155,-0.0104,-0.0065,-0.0048,-0.0024,0.0008,0.0023,0.0038,0.006,0.0054,0.0096,0.0103,0.0029,0.003,0.003,0.0031,0,0,-0.035,-0.0347,-0.0346,-0.0359,-0.0332,-0.0328,-0.0318,-0.0292,-0.0282,-0.0233,-0.0214,-0.0158,-0.0119,-0.0094,-0.0051,-0.0009,0.0032,0.0017,0.002,0.0053,0.0123,0.0155,0.0166,0.0051,0.0052,0.0053,0.0147,0,-0.0381,-0.0412,-0.0391,-0.0419,-0.0434,-0.0396,-0.0394,-0.0363,-0.0322,-0.0289,-0.0216,-0.0182,-0.0137,-0.0118,-0.0068,0.0006,0.0049,0.0005,0.0126,0.013,0.0157,0.0175,0.0146,0.0229,0.0154,0.0156,0.0156,0,-0.0405,-0.0427,-0.0468,-0.0485,-0.0486,-0.049,-0.0476,-0.0462,-0.0397,-0.0367,-0.0305,-0.0245,-0.0169,-0.0138,-0.0005,-0.0036,0.0035,0.0096,0.0101,0.015,0.0175,0.0224,0.0245,0.0169,0.0168,0.0167,0.0166,0,-0.0449,-0.0476,-0.0516,-0.0522,-0.0531,-0.0538,-0.053,-0.0485,-0.0476,-0.0405,-0.0387,-0.0285,-0.0236,-0.013,0.0006,-0.0002,0.0153,0.0158,0.0255,0.0258,0.0268,0.027,0.0244,0.0244,0.0243,0.0243,0.0243,0,-0.0488,-0.0518,-0.0542,-0.0564,-0.061,-0.0587,-0.0606,-0.0581,-0.0541,-0.0527,-0.0425,-0.0391,-0.0233,-0.012,-0.0004,0.0158,0.0151,0.0258,0.0288,0.0252,0.0252,0.0225,0.0221,0.0247,0.0246,0.0245,0.0245,0,-0.0527,-0.0541,-0.0596,-0.0625,-0.0633,-0.0664,-0.0671,-0.068,-0.0628,-0.0605,-0.0587,-0.0466,-0.0312,-0.014,0.0041,0.0144,0.0293,0.0348,0.0297,0.032,0.037,0.0363,0.0462,0.0464,0.0465,0.0467,0.0468,0,-0.0549,-0.0582,-0.0647,-0.0687,-0.0701,-0.0737,-0.0762,-0.0733,-0.0735,-0.065,-0.0644,-0.0493,-0.0379,-0.0086,0.0124,0.035,0.0346,0.0439,0.042,0.0375,0.0394,0.0385,0.0376,0.0415,0.0416,0.0417,0.0417,0,-0.0595,-0.062,-0.067,-0.0756,-0.0801,-0.0853,-0.0874,-0.0893,-0.0844,-0.0804,-0.072,-0.0616,-0.0323,-0.0074,0.0224,0.0343,0.0403,0.0457,0.0436,0.0362,0.0339,0.0355,0.0347,0.0422,0.0421,0.0421,0.0421,0.042,-0.0626,-0.0681,-0.0748,-0.0825,-0.0888,-0.0949,-0.0981,-0.0984,-0.0978,-0.0892,-0.0785,-0.0596,-0.0343,0.0081,0.0292,0.0483,0.0471,0.0512,0.0508,0.0503,0.0478,0.0459,0.056,0.056,0.056,0.0561,0.0561,0,-0.0663,-0.0725,-0.0808,-0.0903,-0.098,-0.0992,-0.1042,-0.1045,-0.1031,-0.0911,-0.0791,-0.0503,-0.0204,0.0066,0.0378,0.0558,0.0532,0.0577,0.0513,0.0507,0.0502,0.0475,0.0557,0.0558,0.0558,0.0559,0,0,-0.0686,-0.0773,-0.0821,-0.0956,-0.102,-0.1097,-0.1124,-0.1101,-0.1021,-0.09,-0.0745,-0.0526,-0.0193,0.0029,0.0262,0.0425,0.0413,0.043,0.0413,0.0303,0.0296,0.0444,0.0394,0,0,0,0,0]}],[{"header":{"parameterUnit":"m.s-1","parameterCategory":2,"la1":30.2991,"la2":30.254,"lo1":-89.0895,"lo2":-89.0444,"dy":0.0017,"dx":0.0017,"nx":28,"ny":28,"refTime":"2024-02-14T09:00:00:Z","depth":"4","parameterNumber":2,"parameterNumberName":"U-component_of_CURRENTS"},"data":[0,0,0,0,0,0,0,0,0,0,0,0,0,0,0,0,0,0,0,0,0,0,0,0,0,0,0,0,0,0,0,0,0,0,0,0,0,0,0,0,0,0,0,0,0,0,0,0,0,0,0,0,0,0,0,0,0,0,-0.1575,-0.1575,0,-0.1633,-0.1633,-0.1634,-0.1678,-0.1679,-0.1679,-0.168,-0.1724,-0.1725,-0.1726,0,0,0,0,0,0,0,0,0,0,0,0,0,-0.1422,-0.1424,-0.1574,-0.1575,-0.1576,-0.1633,-0.1633,-0.1634,-0.1678,-0.1679,-0.1679,-0.168,-0.1724,-0.1725,-0.1726,0,0,0,0,0,0,0,0,0,0,0,0,0,-0.1483,-0.1425,-0.1574,-0.1607,-0.161,-0.1633,-0.1633,-0.1634,-0.1678,-0.1679,-0.1679,-0.168,-0.1724,-0.1725,-0.1726,-0.1714,0,0,-0.1729,-0.1729,0,0,0,0,0,0,0,0,-0.1479,-0.1488,-0.1601,-0.1604,-0.1609,-0.1651,-0.1596,-0.1661,-0.1677,-0.165,-0.168,-0.1681,-0.1699,-0.1702,-0.1708,-0.1716,-0.1718,-0.1729,-0.1729,-0.173,-0.173,0,0,0,0,0,0,0,-0.1475,-0.1485,-0.1595,-0.1602,-0.1607,-0.1591,-0.1601,-0.1608,-0.1667,-0.1652,-0.1656,-0.1666,-0.1701,-0.1707,-0.171,-0.1719,-0.1729,-0.173,-0.173,-0.1731,-0.1801,-0.1803,0,0,0,0,0,0,-0.1476,-0.1482,-0.1594,-0.1597,-0.1547,-0.1593,-0.1605,-0.1635,-0.1667,-0.1674,-0.1665,-0.1668,-0.1705,-0.1709,-0.1712,-0.1774,-0.173,-0.1731,-0.1731,-0.18,-0.1802,-0.1803,0,0,0,0,0,0,-0.1473,-0.1486,-0.1591,-0.1541,-0.1554,-0.1596,-0.1629,-0.1635,-0.167,-0.1677,-0.1683,-0.1696,-0.1706,-0.171,-0.1744,-0.1773,-0.1731,-0.1732,-0.1798,-0.18,-0.1802,-0.185,0,0,0,0,0,0,-0.1469,-0.1485,-0.1515,-0.1542,-0.1557,-0.1623,-0.1628,-0.1636,-0.1674,-0.1679,-0.1706,-0.1709,-0.1707,-0.1743,-0.1745,-0.1774,-0.1733,-0.1797,-0.1799,-0.1802,-0.1847,-0.1854,-0.1859,0,0,0,0,0,-0.1463,-0.1497,-0.1517,-0.1531,-0.1595,-0.1624,-0.163,-0.1659,-0.1675,-0.1694,-0.1715,-0.171,-0.176,-0.1745,-0.1747,-0.1776,-0.1796,-0.1799,-0.1801,-0.1844,-0.1852,-0.1859,0,0,0,0,0,0,-0.1445,-0.1506,-0.1528,-0.158,-0.1609,-0.1632,-0.1656,-0.1674,-0.1706,-0.1719,-0.1723,-0.1728,-0.1768,-0.1766,-0.1749,-0.1805,-0.1778,-0.1782,-0.181,-0.1817,-0.1823,-0.1817,-0.1734,0,0,0,0,0,-0.1455,-0.1502,-0.1544,-0.1586,-0.1604,-0.1635,-0.1654,-0.1676,-0.1702,-0.1719,-0.1739,-0.1759,-0.1777,-0.1793,-0.1805,-0.1834,-0.1819,-0.1856,-0.1862,-0.1867,-0.1864,-0.1868,-0.1874,-0.1813,-0.1813,-0.1813,0,0,-0.1459,-0.1499,-0.1526,-0.1586,-0.1611,-0.1642,-0.1649,-0.1689,-0.172,-0.1717,-0.177,-0.1781,-0.1789,-0.1824,-0.1842,-0.183,-0.1878,-0.1871,-0.1875,-0.1869,-0.1871,-0.1877,-0.1882,-0.1815,-0.1814,-0.1814,0,0,-0.1472,-0.1527,-0.1563,-0.1592,-0.1642,-0.1662,-0.168,-0.1722,-0.1751,-0.1794,-0.1802,-0.1831,-0.1862,-0.1874,-0.1881,-0.1928,-0.1908,-0.1939,-0.1968,-0.1972,-0.1977,-0.1981,-0.1971,-0.1973,-0.1945,-0.1945,-0.1945,0,-0.1473,-0.1531,-0.1574,-0.1609,-0.1638,-0.1675,-0.1708,-0.1739,-0.1788,-0.1812,-0.182,-0.1874,-0.1883,-0.1919,-0.1939,-0.1942,-0.1935,-0.1939,-0.1979,-0.1983,-0.1986,-0.1974,-0.1977,-0.1948,-0.1948,-0.1947,-0.1947,0,-0.1502,-0.1555,-0.1576,-0.1641,-0.1675,-0.171,-0.1757,-0.1798,-0.1837,-0.1863,-0.1916,-0.1932,-0.196,-0.1975,-0.1971,-0.2007,-0.1991,-0.1983,-0.1957,-0.1994,-0.1981,-0.1982,-0.1952,-0.1951,-0.195,-0.1949,0,0,-0.1483,-0.1579,-0.1589,-0.1623,-0.1698,-0.1724,-0.1785,-0.184,-0.1879,-0.1928,-0.1972,-0.2009,-0.2018,-0.2027,-0.2034,-0.2043,-0.2061,-0.2027,-0.2026,-0.2011,-0.2063,-0.1934,-0.1922,-0.2062,-0.2063,-0.2063,-0.2044,0,-0.1492,-0.1557,-0.1611,-0.1672,-0.1706,-0.1766,-0.1816,-0.1873,-0.1922,-0.1973,-0.2003,-0.2042,-0.2039,-0.2058,-0.2069,-0.2067,-0.2067,-0.2066,-0.2034,-0.2032,-0.1908,-0.192,-0.2065,-0.2045,-0.2045,-0.2045,-0.2045,0,-0.1496,-0.1545,-0.1605,-0.1691,-0.1713,-0.1757,-0.1841,-0.1892,-0.1968,-0.2006,-0.2052,-0.2075,-0.211,-0.2095,-0.2106,-0.2107,-0.2086,-0.2077,-0.2076,-0.1936,-0.1905,-0.2,-0.2047,-0.2047,-0.2047,-0.2047,-0.2047,0,-0.1441,-0.1537,-0.1586,-0.1616,-0.1717,-0.176,-0.1816,-0.1899,-0.1948,-0.2026,-0.2061,-0.2105,-0.213,-0.2124,-0.2111,-0.2113,-0.2104,-0.2102,-0.1963,-0.1953,-0.2055,-0.2051,-0.2091,-0.2091,-0.2091,-0.2091,-0.2091,0,-0.1411,-0.1453,-0.1568,-0.159,-0.1655,-0.1735,-0.1805,-0.1867,-0.1955,-0.1993,-0.2069,-0.209,-0.2138,-0.2142,-0.212,-0.2037,-0.2108,-0.1958,-0.1936,-0.2077,-0.2075,-0.2056,-0.2052,-0.209,-0.2091,-0.2091,-0.2091,0,-0.1331,-0.1408,-0.147,-0.1586,-0.1628,-0.1671,-0.1795,-0.183,-0.1929,-0.1981,-0.2006,-0.209,-0.2083,-0.2105,-0.2093,-0.2028,-0.1976,-0.1925,-0.2068,-0.2057,-0.1822,-0.1822,-0.1767,-0.1762,-0.1758,-0.1755,-0.1752,0,-0.129,-0.1315,-0.1449,-0.1485,-0.1541,-0.1625,-0.1672,-0.1797,-0.1831,-0.1951,-0.1952,-0.2003,-0.203,-0.1912,-0.1952,-0.1894,-0.1869,-0.1833,-0.1828,-0.1803,-0.1788,-0.1794,-0.1799,-0.1746,-0.1745,-0.1744,-0.1743,0,-0.1205,-0.1265,-0.1313,-0.1396,-0.1457,-0.1522,-0.16,-0.162,-0.174,-0.185,-0.184,-0.1835,-0.1826,-0.1815,-0.178,-0.1741,-0.1856,-0.179,-0.1799,-0.1794,-0.1776,-0.1767,-0.1776,-0.1728,-0.173,-0.1732,-0.1733,0,-0.1136,-0.1151,-0.1225,-0.1282,-0.1358,-0.1385,-0.1451,-0.1485,-0.1544,-0.168,-0.1667,-0.1721,-0.1799,-0.1733,-0.1702,-0.1654,-0.163,-0.1576,-0.1595,-0.1611,-0.1568,-0.1523,-0.1368,0,0,0,0,0,-0.1061,-0.1063,-0.1105,-0.1163,-0.1231,-0.1276,-0.1381,-0.1448,-0.1571,-0.1514,-0.159,-0.1569,-0.1538,-0.1577,-0.1491,-0.1628,-0.1635,-0.1523,-0.1583,-0.165,-0.1666,-0.163,0,0,0,0,0,0,-0.1007,-0.1039,-0.106,-0.1046,-0.1059,-0.1121,-0.118,-0.1267,-0.1254,-0.1381,-0.1371,-0.1465,-0.1456,-0.1549,-0.1453,-0.1461,-0.1465,-0.1567,-0.1562,-0.1641,-0.1656,-0.1669,-0.1637,0,0,0,0,0]},{"header":{"parameterUnit":"m.s-1","parameterCategory":2,"la1":30.2991,"la2":30.254,"lo1":-89.0895,"lo2":-89.0444,"dy":0.0017,"dx":0.0017,"nx":28,"ny":28,"refTime":"2024-02-14T09:00:00:Z","depth":"4","parameterNumber":3,"parameterNumberName":"V-component_of_CURRENTS"},"data":[0,0,0,0,0,0,0,0,0,0,0,0,0,0,0,0,0,0,0,0,0,0,0,0,0,0,0,0,0,0,0,0,0,0,0,0,0,0,0,0,0,0,0,0,0,0,0,0,0,0,0,0,0,0,0,0,0,0,-0.0134,-0.0133,0,-0.0091,-0.009,-0.009,-0.0063,-0.0063,-0.0063,-0.0063,-0.0001,0.0001,0.0002,0,0,0,0,0,0,0,0,0,0,0,0,0,-0.0177,-0.0177,-0.0134,-0.0133,-0.0133,-0.0091,-0.009,-0.0089,-0.0063,-0.0063,-0.0063,-0.0063,-0.0001,0.0001,0.0002,0,0,0,0,0,0,0,0,0,0,0,0,0,-0.0149,-0.0177,-0.0134,-0.0115,-0.0112,-0.0091,-0.009,-0.0089,-0.0063,-0.0063,-0.0063,-0.0063,-0.0002,0.0,0.0003,0.0013,0,0,0.001,0.0011,0,0,0,0,0,0,0,0,-0.015,-0.0147,-0.0118,-0.0116,-0.0113,-0.0082,-0.0083,-0.0054,-0.0063,-0.0082,-0.0063,-0.0063,-0.0026,-0.0022,-0.0014,0.0016,0.0019,0.001,0.0011,0.0012,0.0013,0,0,0,0,0,0,0,-0.0153,-0.0149,-0.0116,-0.0117,-0.0115,-0.0103,-0.0099,-0.0077,-0.0055,-0.008,-0.0078,-0.0074,-0.0025,-0.0017,-0.0013,0.002,0.001,0.0012,0.0013,0.0014,0.0059,0.0059,0,0,0,0,0,0,-0.0159,-0.0151,-0.0118,-0.0115,-0.0132,-0.0102,-0.0098,-0.0092,-0.0056,-0.005,-0.0074,-0.0073,-0.0021,-0.0016,-0.001,-0.0001,0.0012,0.0014,0.0016,0.0059,0.0059,0.0059,0,0,0,0,0,0,-0.016,-0.0156,-0.0119,-0.0132,-0.0127,-0.0102,-0.0096,-0.0092,-0.0084,-0.0051,-0.0045,-0.0071,-0.0021,-0.0014,0.0004,0.0002,0.0016,0.0018,0.006,0.0059,0.0059,0.0022,0,0,0,0,0,0,-0.0162,-0.0157,-0.0159,-0.0133,-0.0126,-0.0112,-0.0096,-0.0091,-0.0081,-0.0079,-0.0046,-0.004,-0.002,0.0,0.0006,0.0006,0.0019,0.006,0.006,0.0059,0.0024,0.0021,0.0018,0,0,0,0,0,-0.0163,-0.0167,-0.0159,-0.0155,-0.0128,-0.0112,-0.0108,-0.0089,-0.0081,-0.0081,-0.006,-0.0042,0.0002,0.0002,0.0009,0.0009,0.006,0.006,0.0059,0.0025,0.0021,0.0018,0,0,0,0,0,0,-0.0188,-0.0163,-0.0155,-0.0151,-0.0135,-0.0108,-0.0106,-0.0092,-0.0075,-0.0073,-0.0043,-0.0036,-0.0023,-0.0002,-0.0003,0.002,0.0034,0.0035,0.0006,0.0003,-0.0,-0.0009,0.0021,0,0,0,0,0,-0.0194,-0.0189,-0.0165,-0.0163,-0.0156,-0.0132,-0.0124,-0.0111,-0.0091,-0.0083,-0.006,-0.0037,-0.0019,-0.0005,0.0013,0.0029,0.0055,0.0033,0.003,0.0028,0.0025,0.0062,0.0062,0.0058,0.0058,0.0058,0,0,-0.0203,-0.0189,-0.0186,-0.0168,-0.0153,-0.0152,-0.0126,-0.0117,-0.0116,-0.0079,-0.0071,-0.0048,-0.0018,-0.0005,0.0004,0.0014,0.0043,0.0027,0.0025,0.0024,0.0061,0.0062,0.0062,0.0057,0.0057,0.0057,0,0,-0.022,-0.0205,-0.0209,-0.02,-0.0182,-0.0167,-0.0167,-0.0142,-0.0131,-0.012,-0.0095,-0.0072,-0.0045,-0.0021,-0.0006,-0.0011,0.0023,-0.0007,-0.0022,0.0014,0.0015,0.0016,0.0048,0.0053,-0.0003,-0.0003,-0.0003,0,-0.0232,-0.0234,-0.0208,-0.0212,-0.0212,-0.0178,-0.0188,-0.017,-0.0144,-0.0135,-0.0125,-0.0079,-0.0053,-0.0028,-0.0031,-0.0017,0.0007,-0.0012,0.001,0.0012,0.0014,0.0047,0.0052,-0.0005,-0.0005,-0.0005,-0.0005,0,-0.0251,-0.0257,-0.0258,-0.0253,-0.0249,-0.025,-0.0227,-0.0219,-0.0201,-0.0179,-0.0154,-0.0114,-0.0085,-0.0072,-0.0053,-0.0028,-0.0014,-0.0002,0.0018,0.0012,0.0047,0.0053,-0.0008,-0.0007,-0.0007,-0.0006,0,0,-0.0264,-0.0272,-0.0273,-0.0287,-0.0274,-0.0274,-0.0271,-0.0257,-0.0253,-0.0217,-0.0206,-0.0163,-0.0132,-0.0113,-0.0078,-0.0043,-0.0009,-0.0021,-0.0018,0.001,0.0068,0.0062,0.0069,0.0008,0.0008,0.0009,0.0088,0,-0.0288,-0.0318,-0.0309,-0.0338,-0.0353,-0.0331,-0.0334,-0.0316,-0.0288,-0.0266,-0.0209,-0.0186,-0.0149,-0.0135,-0.0093,-0.0032,0.0005,-0.0032,0.0071,0.0074,0.0069,0.0075,0.0012,0.0093,0.0094,0.0095,0.0096,0,-0.0307,-0.0329,-0.0368,-0.0393,-0.0396,-0.0406,-0.0405,-0.0399,-0.0354,-0.0334,-0.0287,-0.024,-0.0179,-0.0152,-0.0042,-0.0067,-0.0007,0.0044,0.0049,0.006,0.008,0.0102,0.0108,0.0107,0.0106,0.0105,0.0104,0,-0.0335,-0.0367,-0.0405,-0.0413,-0.0432,-0.0445,-0.0447,-0.042,-0.0419,-0.0368,-0.0356,-0.0275,-0.0235,-0.0146,-0.0034,-0.0039,0.0089,0.0096,0.015,0.0151,0.0148,0.0147,0.0168,0.0168,0.0168,0.0168,0.0167,0,-0.036,-0.0389,-0.0426,-0.0445,-0.0493,-0.0485,-0.0511,-0.0496,-0.0473,-0.0467,-0.0389,-0.0362,-0.0232,-0.014,-0.0043,0.0076,0.0086,0.0148,0.0171,0.0131,0.0126,0.0153,0.015,0.0171,0.017,0.0169,0.0169,0,-0.0379,-0.0401,-0.0453,-0.0493,-0.0509,-0.054,-0.0566,-0.0579,-0.0546,-0.0534,-0.0521,-0.0423,-0.0302,-0.0164,-0.0012,0.006,0.0175,0.0214,0.0164,0.0182,0.0214,0.0209,0.0275,0.0275,0.0275,0.0276,0.0276,0,-0.0389,-0.0419,-0.0493,-0.0533,-0.0554,-0.0598,-0.0629,-0.0621,-0.0626,-0.0569,-0.0562,-0.0449,-0.0368,-0.0149,-0.0013,0.0176,0.0198,0.0254,0.023,0.021,0.0226,0.0219,0.0214,0.0277,0.0277,0.0277,0.0277,0,-0.0411,-0.0442,-0.0488,-0.0575,-0.0627,-0.0681,-0.0712,-0.0724,-0.0699,-0.0674,-0.0588,-0.0466,-0.0327,-0.0156,-0.0004,0.0127,0.0215,0.0258,0.0258,0.0236,0.0213,0.0227,0.0221,0.0278,0.0278,0.0278,0.0278,0,-0.0426,-0.047,-0.0536,-0.0609,-0.0683,-0.0735,-0.0753,-0.0748,-0.0744,-0.0669,-0.0642,-0.0479,-0.0382,-0.0181,-0.0043,0.009,0.0114,0.0144,0.015,0.015,0.0088,0.004,0.0072,0,0,0,0,0,-0.0434,-0.0486,-0.0562,-0.0646,-0.072,-0.0757,-0.0796,-0.08,-0.0776,-0.0722,-0.0677,-0.0542,-0.0323,-0.0226,-0.0094,-0.005,0.0126,0.0105,0.016,0.0286,0.0284,0.0232,0,0,0,0,0,0,-0.0444,-0.0515,-0.0561,-0.0658,-0.0715,-0.079,-0.0818,-0.0804,-0.0764,-0.0716,-0.0597,-0.0521,-0.0307,-0.0393,-0.0093,-0.0052,-0.0004,0.0214,0.0217,0.0287,0.0285,0.0284,0.023,0,0,0,0,0]}]]